Regional Weather Roundup
Issued by NWS

Home | Current Version | Previous Version | Graphics & Text | Print | Product List | Glossary On
Versions: 1 2 3 4 5 6 7 8 9 10 11 12 13 14 15 16 17 18 19 20 21 22 23 24 25 26 27 28 29 30 31 32 33 34 35 36 37 38 39 40 41 42 43 44 45 46 47 48 49 50
000
ASUS43 KOAX 250510
RWRNE

WEATHER ROUNDUP FOR NEBRASKA
NATIONAL WEATHER SERVICE OMAHA NE
1200 AM CDT TUE APR 25 2017

NOTES: SATELLITE DATA IS BEING USED TO AUGMENT CLOUD COVER ABOVE
       12000 FEET.
       "FAIR" INDICATES FEW OR NO CLOUDS BELOW 12,000 FEET WITH NO
       SIGNIFICANT WEATHER AND/OR OBSTRUCTIONS TO VISIBILITY.

  * THESE STATIONS DO NOT REPORT WEATHER SUCH AS RAIN...SNOW OR FOG.

NEZ001>004-019>022-054>056-250600-
NEBRASKA PANHANDLE

CITY           SKY/WX    TMP DP  RH WIND       PRES   REMARKS
SCOTTSBLUFF    CLOUDY    50  45  83 SE7       29.56F
ALLIANCE       LGT RAIN  49  45  86 SE12      29.58F
CHADRON        CLOUDY    49  44  83 SE13      29.57F
KIMBALL        CLOUDY    46  45  97 E8        29.56F
SIDNEY         CLOUDY    47  44  90 NE10      29.56F
$$

NEZ057>060-069>072-079>082-250600-
SOUTHWEST NEBRASKA

CITY           SKY/WX    TMP DP  RH WIND       PRES   REMARKS
NORTH PLATTE   CLOUDY    53  41  63 NE12      29.55F
IMPERIAL       CLOUDY    53  46  77 NE9       29.55F
LEXINGTON      MOCLDY    55  40  57 NE7       29.57R
MCCOOK         CLOUDY    56  43  61 NE10      29.51F
OGALLALA       LGT RAIN  55  41  58 E9        29.61R
$$

NEZ005>010-023>029-035>040-094-250600-
NORTH CENTRAL NEBRASKA

CITY           SKY/WX    TMP DP  RH WIND       PRES   REMARKS
VALENTINE      CLOUDY    45  37  73 NE9       29.62S
AINSWORTH      CLOUDY    40  38  93 NE5       29.62S
BROKEN BOW     CLOUDY    51  40  65 N7        29.59R
O`NEILL        CLEAR     42  37  81 NW8       29.60F
ORD            MOCLDY    49  39  68 N8        29.58S
THEDFORD       CLOUDY    46  41  84 NE6       29.59F
$$

NEZ041-046>049-061>064-073>077-083>087-250600-
SOUTH CENTRAL NEBRASKA

CITY           SKY/WX    TMP DP  RH WIND       PRES   REMARKS
GRAND ISLAND   PTCLDY    53  43  68 NE16      29.56F
AURORA         MOCLDY    55  42  62 N16       29.55S
HASTINGS       PTCLDY    57  42  57 NE13      29.55R
HEBRON         PTCLDY    57  42  57 NW5       29.53F
HOLDREGE       CLOUDY    56  40  54 NE13      29.55R
KEARNEY *      CLOUDY    55  39  54 NE15      29.56R
YORK           CLOUDY    54  43  66 N16G23    29.54F
$$

NEZ011>018-030>034-042>045-250600-
NORTHEAST NEBRASKA

CITY           SKY/WX    TMP DP  RH WIND       PRES   REMARKS
NORFOLK        CLEAR     47  39  74 NW7       29.56F
ALBION         PTCLDY    49  39  70 NW8       29.58S
BLAIR          MOCLDY    63  46  53 W5        29.54R
FREMONT        MOCLDY    55  41  60 N8        29.56S
TEKAMAH        MOCLDY    55  44  66 NW10      29.54S
WAYNE          CLOUDY    46  41  82 N5        29.56F
$$

NEZ050>053-065>068-078-088>093-250600-
SOUTHEAST NEBRASKA

CITY           SKY/WX    TMP DP  RH WIND       PRES   REMARKS
LINCOLN        PTCLDY    59  48  67 CALM      29.53S
OMAHA EPPLEY   MOCLDY    63  44  50 S8        29.52S
BEATRICE       CLOUDY    62  49  63 S8        29.51S
FALLS CITY     CLOUDY    55  46  71 SE7       29.54F
NEBRASKA CITY  CLOUDY    58  40  50 S8        29.53F
PLATTSMOUTH    CLEAR     61  40  44 SE12      29.53S
$$

NEZ044-045-051>053-067-250600-
OMAHA AREA

CITY           SKY/WX    TMP DP  RH WIND       PRES   REMARKS
OMAHA EPPLEY   MOCLDY    63  44  50 S8        29.52S
BLAIR          MOCLDY    63  46  53 W5        29.54R
FREMONT        MOCLDY    55  41  60 N8        29.56S
MILLARD        PTCLDY    63  47  55 CALM      29.52F
OFFUTT AFB     CLEAR     60  44  55 SE6       29.52F
PLATTSMOUTH    CLEAR     61  40  44 SE12      29.53S
WAHOO          FAIR      56  43  62 N18       29.54R
$$




USA.gov is the U.S. government's official web portal to all federal, state and local government web resources and services.